Des Moines, IA

10:52 PM CDT on March 27, 2017 (GMT -0500)
Des Moines International

Weather History for KDSM - March, 2014

Change the Weather History Date:

Wednesday, March 12, 2014

  Actual Average Record
Temperature  
Mean Temperature 33 °F 38 °F  
Max Temperature 37 °F 47 °F 77 °F (1916)
Min Temperature 28 °F 28 °F -11 °F (1948)
Degree Days  
Heating Degree Days 32 27  
Month to date heating degree days 450 357  
Since 1 July heating degree days 5757 5188  
Cooling Degree Days 0 0  
Month to date cooling degree days 0 0  
Year to date cooling degree days 0 0  
Moisture  
Dew Point 21 °F    
Average Humidity 57    
Maximum Humidity 69    
Minimum Humidity 44    
Precipitation  
Precipitation 0.00 in 0.06 in 0.95 in (1986)
Month to date precipitation 0.14 0.77  
Year to date precipitation 2.48 3.05  
Snow  
Snow 0.00 in 0.20 in 4.40 in (1951)
Month to date snowfall 3.5 2.4  
Since 1 July snowfall 45.4 30.7  
Snow Depth 0.00 in    
Sea Level Pressure  
Sea Level Pressure 30.11 in    
Wind  
Wind Speed 11 mph (NNW)    
Max Wind Speed 24 mph    
Max Gust Speed 32 mph    
Visibility 10 miles    
Events      
T = Trace of Precipitation, MM = Missing Value Source: NWS Daily Summary

Daily Weather History Graph

Daily Weather History Graph

Search for Another Location

Airport or City:

Trip Planner

Search our weather history database for the weather conditions in past years. The results will help you decide how hot, cold, wet, or windy it might be!

Date:

Astronomy

Mar. 12, 2014 Rise Set
Actual Time 7:31 AM CDT 7:17 PM CDT
Civil Twilight 7:03 AM CDT 7:45 PM CDT
Nautical Twilight 6:31 AM CDT 8:17 PM CDT
Astronomical Twilight 5:59 AM CDT 8:50 PM CDT
Moon 3:47 PM CDT (3/12) 5:05 AM CDT (3/12)
Length of Visible Light 12h 41m
Length of Day
11h 46m
Waxing Gibbous, 85% of the Moon is Illuminated
Mar 12
Waxing Gibbous
Mar 16
Full
Mar 23
Last Quarter
Mar 30
New
Apr 7
First Quarter

Hourly Weather History & Observations

Time (CDT) Temp. Windchill Dew Point Humidity Pressure Visibility Wind Dir Wind Speed Gust Speed Precip Events Conditions
12:54 AM 37.0 °F 26.4 °F 24.1 °F 59% 29.98 in 10.0 mi North 20.7 mph 32.2 mph N/A   Overcast
1:54 AM 35.1 °F 23.8 °F 25.0 °F 67% 30.00 in 10.0 mi North 20.7 mph 31.1 mph N/A   Partly Cloudy
2:54 AM 34.0 °F 24.2 °F 24.1 °F 67% 30.01 in 10.0 mi North 15.0 mph 32.2 mph N/A   Clear
3:54 AM 32.0 °F 21.2 °F 23.0 °F 69% 30.02 in 10.0 mi NNW 16.1 mph 23.0 mph N/A   Clear
4:54 AM 32.0 °F 22.1 °F 21.0 °F 64% 30.04 in 10.0 mi North 13.8 mph 23.0 mph N/A   Clear
5:54 AM 30.9 °F 21.7 °F 19.9 °F 64% 30.08 in 10.0 mi NNW 11.5 mph 20.7 mph N/A   Clear
6:54 AM 30.0 °F 21.7 °F 19.9 °F 66% 30.09 in 10.0 mi NNW 9.2 mph - N/A   Partly Cloudy
7:54 AM 30.0 °F 20.5 °F 19.9 °F 66% 30.11 in 10.0 mi NNW 11.5 mph - N/A   Mostly Cloudy
8:54 AM 30.9 °F 21.2 °F 18.0 °F 59% 30.12 in 10.0 mi NNW 12.7 mph - N/A   Partly Cloudy
9:54 AM 32.0 °F 21.2 °F 18.0 °F 56% 30.15 in 10.0 mi North 16.1 mph 23.0 mph N/A   Overcast
10:54 AM 35.1 °F 25.5 °F 18.0 °F 50% 30.15 in 10.0 mi NNW 15.0 mph - N/A   Scattered Clouds
11:54 AM 36.0 °F 26.0 °F 16.0 °F 44% 30.15 in 10.0 mi NW 17.3 mph 23.0 mph N/A   Overcast
12:54 PM 36.0 °F 26.7 °F 19.0 °F 50% 30.16 in 10.0 mi NW 15.0 mph - N/A   Overcast
1:54 PM 35.1 °F 25.2 °F 19.0 °F 52% 30.16 in 10.0 mi NW 16.1 mph - N/A   Overcast
2:54 PM 36.0 °F 26.7 °F 19.9 °F 52% 30.15 in 10.0 mi NW 15.0 mph - N/A   Overcast
3:54 PM 35.1 °F 25.2 °F 21.0 °F 57% 30.16 in 10.0 mi NW 16.1 mph - N/A   Overcast
4:54 PM 35.1 °F 27.4 °F 19.9 °F 54% 30.16 in 10.0 mi NNW 10.4 mph - N/A   Overcast
5:54 PM 36.0 °F 28.5 °F 23.0 °F 59% 30.15 in 10.0 mi NW 10.4 mph - N/A   Overcast
6:23 PM 35.1 °F 29.3 °F 21.9 °F 59% 30.12 in 10.0 mi NNW 6.9 mph - N/A   Overcast
6:48 PM 35.6 °F 31.7 °F 21.2 °F 56% 30.11 in 10.0 mi NNW 4.6 mph - N/A   Mostly Cloudy
6:54 PM 35.1 °F 30.1 °F 21.9 °F 59% 30.14 in 10.0 mi North 5.8 mph - N/A   Mostly Cloudy
7:54 PM 34.0 °F 31.0 °F 21.9 °F 61% 30.14 in 10.0 mi North 3.5 mph - N/A   Mostly Cloudy
8:54 PM 34.0 °F 29.8 °F 21.9 °F 61% 30.15 in 10.0 mi East 4.6 mph - N/A   Overcast
9:54 PM 32.0 °F 27.5 °F 21.9 °F 66% 30.15 in 10.0 mi ESE 4.6 mph - N/A   Scattered Clouds
10:54 PM 30.9 °F 26.2 °F 21.9 °F 69% 30.13 in 10.0 mi ESE 4.6 mph - N/A   Scattered Clouds
11:54 PM 30.0 °F 25.2 °F 21.9 °F 72% 30.13 in 10.0 mi SSE 4.6 mph - N/A   Mostly Cloudy